DW0332 Weather Reports


Display with metric or nautical units.
time (UTC)temp
F
wind
direction
speed
MPH
gust
MPH
rain 1hr
in
rain 24hr
in
rain mn
in
humidity
%
barometer
mb
20260508024558 50 346 3.0 11.0 0.00 0.04 0.03 45 1009.6
20260508023056 51 346 2.0 8.0 0.00 0.04 0.03 45 1009.4
20260508021555 51 332 3.0 14.0 0.00 0.04 0.03 43 1009.2
20260508020154 52 59 3.0 11.0 0.00 0.04 0.03 43 1009.1
20260508014551 52 332 2.0 10.0 0.00 0.04 0.03 43 1008.8
20260508013050 52 323 2.0 8.0 0.00 0.04 0.03 44 1008.7
20260508011550 52 336 2.0 6.0 0.00 0.04 0.03 45 1008.4
20260508010049 52 298 1.0 4.0 0.00 0.04 0.03 47 1008.2
20260508004548 53 288 0.0 3.0 0.00 0.05 0.03 49 1008.1
20260508003048 54 261 0.0 3.0 0.00 0.05 0.03 45 1007.8
20260508001547 54 261 0.0 5.0 0.00 0.05 0.03 42 1007.5
20260508000047 55 269 1.0 3.0 0.00 0.05 0.03 42 1007.3
20260507234546 56 245 1.0 7.0 0.00 0.05 0.03 39 1007.3
20260507233046 57 313 3.0 9.0 0.00 0.05 0.03 37 1007.2
20260507231552 58 239 3.0 9.0 0.00 0.05 0.03 38 1007.0
20260507230048 58 262 4.0 14.0 0.00 0.05 0.03 36 1006.9
20260507224544 59 277 4.0 10.0 0.00 0.06 0.03 36 1006.5
20260507223044 60 355 6.0 14.0 0.00 0.06 0.03 33 1006.4
20260507221544 60 301 8.0 19.0 0.00 0.06 0.03 33 1006.3
20260507220041 61 318 7.0 15.0 0.00 0.06 0.03 35 1006.1
20260507214602 62 313 4.0 16.0 0.00 0.14 0.03 33 1006.3
20260507213040 62 240 8.0 15.0 0.00 0.14 0.03 32 1006.2
20260507211540 63 250 7.0 15.0 0.00 0.14 0.03 32 1006.1
20260507210050 63 265 6.0 15.0 0.00 0.14 0.03 33 1006.0
20260507204540 63 273 8.0 19.0 0.00 0.19 0.03 33 1005.9
20260507203048 64 302 5.0 13.0 0.00 0.19 0.03 32 1006.0
20260507201543 65 285 4.0 16.0 0.00 0.19 0.03 32 1005.8
20260507200038 66 261 8.0 15.0 0.00 0.19 0.03 32 1005.9
20260507194603 65 272 8.0 15.0 0.00 0.22 0.03 31 1005.9
20260507193036 65 324 9.0 17.0 0.00 0.22 0.03 35 1006.0
20260507191535 65 286 8.0 15.0 0.00 0.22 0.03 32 1006.1
20260507190033 65 274 5.0 15.0 0.00 0.22 0.03 34 1006.1
20260507184530 65 273 6.0 15.0 0.00 0.22 0.03 39 1006.2
20260507183035 64 304 4.0 14.0 0.00 0.22 0.03 44 1006.4
20260507181525 65 217 4.0 14.0 0.00 0.22 0.03 41 1006.4
20260507180024 64 247 8.0 16.0 0.00 0.22 0.03 43 1006.6
20260507174530 63 300 8.0 17.0 0.00 0.22 0.03 45 1006.7
20260507173020 62 259 9.0 21.0 0.00 0.22 0.03 46 1006.6
20260507171514 59 301 8.0 20.0 0.00 0.22 0.03 55 1006.8
20260507170012 55 263 4.0 10.0 0.00 0.22 0.03 71 1006.9
20260507164511 54 219 7.0 14.0 0.00 0.22 0.03 75 1007.2
20260507163010 53 193 5.0 11.0 0.00 0.22 0.03 78 1007.4
20260507161509 51 179 4.0 11.0 0.00 0.22 0.03 80 1007.7
20260507160008 52 252 4.0 10.0 0.00 0.22 0.03 79 1007.9
20260507154516 54 212 6.0 13.0 0.00 0.22 0.03 74 1007.9
20260507153017 54 241 4.0 13.0 0.00 0.22 0.03 76 1008.1
20260507151505 53 200 4.0 15.0 0.00 0.22 0.03 81 1008.2
20260507150006 54 134 4.0 10.0 0.00 0.22 0.03 79 1008.2
20260507144506 53 207 6.0 10.0 0.00 0.22 0.03 80 1008.3
20260507143004 53 195 5.0 9.0 0.00 0.22 0.03 79 1008.2
20260507141502 54 194 5.0 10.0 0.00 0.22 0.03 79 1008.4
20260507140004 54 183 3.0 9.0 0.00 0.22 0.03 80 1008.6
20260507134600 54 232 5.0 9.0 0.00 0.22 0.03 80 1008.6
20260507133106 54 219 4.0 10.0 0.00 0.22 0.03 79 1008.7
20260507131612 55 184 3.0 9.0 0.00 0.22 0.03 75 1008.8
20260507130054 56 304 3.0 6.0 0.00 0.22 0.03 74 1008.8
20260507124549 54 289 4.0 9.0 0.00 0.22 0.03 80 1008.9
20260507123046 52 265 3.0 7.0 0.00 0.22 0.03 81 1009.0
20260507121543 51 280 0.0 5.0 0.00 0.22 0.03 86 1008.9
20260507120042 48 311 1.0 5.0 0.00 0.22 0.03 88 1009.0
20260507114541 48 331 0.0 4.0 0.00 0.22 0.03 89 1009.1
20260507113039 48 297 0.0 3.0 0.01 0.22 0.03 91 1009.0
20260507111537 47 323 0.0 5.0 0.01 0.22 0.03 91 1009.0
20260507110037 46 327 0.0 3.0 0.01 0.22 0.03 91 1009.1
20260507104538 46 323 1.0 3.0 0.01 0.22 0.03 91 1008.9
20260507103036 46 319 0.0 2.0 0.00 0.21 0.02 91 1009.7
20260507101533 46 332 1.0 3.0 0.00 0.21 0.02 91 1009.2
20260507100035 46 273 1.0 3.0 0.00 0.21 0.02 91 1009.1
20260507094531 46 323 1.0 5.0 0.00 0.21 0.02 91 1009.1
20260507093029 47 306 2.0 5.0 0.00 0.21 0.02 91 1008.7
20260507091528 47 339 1.0 8.0 0.00 0.21 0.02 91 1008.3
20260507090026 47 345 3.0 6.0 0.00 0.21 0.02 92 1008.4
20260507084523 48 15 1.0 8.0 0.00 0.21 0.02 92 1008.4
20260507083022 48 317 2.0 6.0 0.00 0.21 0.02 93 1008.8
20260507081520 48 349 1.0 5.0 0.00 0.21 0.02 93 1008.3
20260507080017 49 342 2.0 5.0 0.00 0.21 0.02 93 1007.9
20260507074515 49 327 1.0 3.0 0.00 0.21 0.02 93 1008.2
20260507073014 49 327 1.0 3.0 0.00 0.21 0.02 93 1008.2
20260507071531 49 344 2.0 5.0 0.00 0.21 0.02 93 1007.7
20260507070012 50 311 1.0 5.0 0.00 0.21 0.02 93 1007.6
20260507064507 50 308 1.0 3.0 0.00 0.21 0.02 93 1007.7
20260507063008 50 308 0.0 2.0 0.00 0.21 0.02 93 1007.6
20260507061506 50 308 0.0 2.0 0.01 0.21 0.02 93 1007.3
20260507060004 51 328 1.0 6.0 0.01 0.21 0.02 93 1007.6
20260507054503 51 36 3.0 8.0 0.01 0.21 0.02 93 1007.1
20260507053129 52 30 1.0 8.0 0.01 0.21 0.02 94 1007.0
20260507051605 52 34 6.0 10.0 0.01 0.20 0.01 95 1007.2
20260507050056 50 251 1.0 5.0 0.01 0.20 0.01 93 1007.0
20260507044557 51 240 2.0 3.0 0.01 0.20 0.01 93 1006.7
20260507043053 52 257 1.0 3.0 0.01 0.20 0.01 94 1006.4
20260507041552 52 246 1.0 4.0 0.01 0.19 0.00 94 1006.3
20260507040047 51 221 3.0 8.0 0.01 0.19 0.00 94 1006.7
20260507034547 49 296 6.0 12.0 0.01 0.19 0.19 94 1006.6
20260507033050 48 304 4.0 14.0 0.01 0.19 0.19 93 1006.6
20260507031544 48 207 5.0 10.0 0.00 0.18 0.18 93 1006.2
20260507030042 48 222 7.0 13.0 0.00 0.18 0.18 93 1006.3